Regional Weather Roundup
Issued by NWS

Home | Current Version | Previous Version | Text Only | Print | Product List | Glossary On
Versions: 1 2 3 4 5 6 7 8 9 10 11 12 13 14 15 16 17 18 19 20 21 22 23 24 25 26 27 28 29 30 31 32 33 34 35 36 37 38 39 40 41 42 43 44 45 46 47 48 49 50
000
ASUS43 KMKX 232100
RWRWI

WISCONSIN REGIONAL WEATHER ROUNDUP
NATIONAL WEATHER SERVICE MILWAUKEE/SULLIVAN WI
400 PM CDT WED APR 23 2014

NOTE: "FAIR" INDICATES FEW OR NO CLOUDS BELOW 12,000 FEET WITH NO
SIGNIFICANT WEATHER AND/OR OBSTRUCTIONS TO VISIBILITY.

WIZ001-002-006>008-014>016-023>028-232200-
NORTHWEST WISCONSIN

CITY           SKY/WX    TMP DP  RH WIND       PRES   REMARKS
SUPERIOR ARPT  CLOUDY    39  29  67 NE10G17   30.07F WCI  32
ASHLAND        PTSUNNY   47  31  53 NE12      30.08F
HAYWARD        CLOUDY    52  23  32 S8        30.05F
SIREN          CLOUDY    52  23  33 SE8G16    30.04F
RICE LAKE      CLOUDY    50  23  34 SE10      30.07F
LADYSMITH      CLOUDY    53  26  35 S8        30.08F
EAU CLAIRE     CLOUDY    53  24  32 SE9       30.05F
MENOMONIE      CLOUDY    52  24  32 SE12      30.06F
NEW RICHMOND   LGT RAIN  46  30  52 S16       30.04F
OSCEOLA        CLOUDY    49  30  48 S14       30.07S
$$

WIZ003>005-009-010-017-018-232200-
NORTH CENTRAL WISCONSIN

CITY           SKY/WX    TMP DP  RH WIND       PRES   REMARKS
WOODRUFF       CLOUDY    58  20  23 SE6       30.07F
RHINELANDER    CLOUDY    52  20  28 SE7       30.07F
EAGLE RIVER    CLOUDY    54  14  20 E8G16     30.08S
LAND O LAKES   PTSUNNY   53  16  23 E5        30.09S
PHILLIPS       CLOUDY    53  24  33 SE6       30.06F
TOMAHAWK       CLOUDY    55  23  28 SE6       30.07F
MEDFORD        CLOUDY    48  25  40 SE8       30.08F
MERRILL        CLOUDY    52  23  32 S10       30.09F
$$

WIZ029-030-035-036-043>047-232200-
CENTRAL WISCONSIN

CITY           SKY/WX    TMP DP  RH WIND       PRES   REMARKS
WAUSAU         CLOUDY    51  23  33 SE7       30.08F
MOSINEE        SUNNY     50  23  34 SE12      30.11F
MARSHFIELD     CLOUDY    50  24  36 SE8       30.08F
STEVENS POINT  CLOUDY    48  21  33 SE9       30.11F
WAUPACA        CLOUDY    54  25  32 SE9       30.13S
WAUTOMA        NOT AVBL
WISC RAPIDS    CLOUDY    52  20  28 SE9       30.11S
CAMP DOUGLAS   NOT AVBL
$$

WIZ011>013-019>022-031-037>040-048>050-232200-
NORTHEAST WISCONSIN

CITY           SKY/WX    TMP DP  RH WIND       PRES   REMARKS
ANTIGO         CLOUDY    50  24  35 S7        30.09F
STURGEON BAY   MOSUNNY   45   9  23 E9        30.16F
GREEN BAY      CLOUDY    50  23  34 E9        30.14F
MANITOWOC      NOT AVBL
APPLETON       PTSUNNY   50  21  32 VRB5      30.13F
CLINTONVILLE   CLOUDY    50  18  27 E5        30.13F
OSHKOSH        CLOUDY    50  25  37 E7        30.12F
$$

WIZ032>034-041-042-053>061-232200-
SOUTHWEST WISCONSIN

CITY           SKY/WX    TMP DP  RH WIND       PRES   REMARKS
LA CROSSE      LGT RAIN  48  34  58 E10       30.08F
SPARTA         CLOUDY    54  21  28 SE9       30.09F
VIROQUA        CLOUDY    49  26  41 SE9       30.08F
BOSCOBEL       CLOUDY    55  26  32 VRB3      30.09F
PRAIRIE DU CHI CLOUDY    52  28  39 E10       30.07F
PLATTEVILLE    FAIR      52  26  35 SE9       30.10F
$$

WIZ056-057-062-063-064-067-068-232200-
SOUTH CENTRAL WISCONSIN

CITY           SKY/WX    TMP DP  RH WIND       PRES   REMARKS
BARABOO/DELLS  CLOUDY    53  25  33 SE6       30.10S
LONE ROCK      NOT AVBL
WATERTOWN      PTSUNNY   53  24  32 SE10      30.11F
MADISON        CLOUDY    55  25  31 SE12      30.10F
MIDDLETON      FAIR      55  21  27 SE7       30.11S
MONROE         CLOUDY    53  26  35 SE7       30.10S
JANESVILLE     CLOUDY    55  21  26 E8        30.10F
$$

WIZ051-052-058>065-066-070>072-232200-
SOUTHEAST WISCONSIN

CITY           SKY/WX    TMP DP  RH WIND       PRES   REMARKS
MILWAUKEE      PTSUNNY   42  24  49 E8        30.16F
WAUKESHA       PTSUNNY   46  18  31 E9        30.14F
MILWAUKEE/TIMM SUNNY     45  21  39 NE6       30.16F
RACINE         MOSUNNY   44  24  45 NE9       30.17F
BURLINGTON     MOSUNNY   50  24  37 E10       30.13F
KENOSHA        MOSUNNY   47  23  38 E10       30.14F
FOND DU LAC    CLOUDY    52  27  38 E7        30.12F
SHEBOYGAN      CLOUDY    44  19  36 NE10      30.16S
WEST BEND      CLOUDY    46  23  39 E8        30.14F
JUNEAU         PTSUNNY   53  21  28 SE8       30.12F
$$

LSZ147-162-232200-
LAKE SUPERIOR

STATION/POSITION TIME  TEMP    WIND        PRES    WAVE
                       AIR SEA DIR/SP/G            HT/PER
                 (UTC) (F)     (DEG/KT/KT) (MB)    (FT/S)
DEVILS ISLAND    2000   37      70/ 10/ 11 1020.6F
PORT WING        2000   36      30/ 15/ 17 1018.3F
SAXON HARBOR     2000           CALM  /  3 1019.3F
$$

LMZ867-665-643>646-232200-
LAKE MICHIGAN

STATION/POSITION TIME  TEMP    WIND        PRES    WAVE
                       AIR SEA DIR/SP/G            HT/PER
                 (UTC) (F)     (DEG/KT/KT) (MB)    (FT/S)
NORTHPORT PIER   2000   39     140/  7/  7 1021.7F
KEWAUNEE LAKESHO 2000   39      70/  4/  5 1022.6F
SHEBOYGAN LAKESH 2000   36      70/  8/  8 1022.6F
PORT WASHINGTON  2040   39      80/  3/  4 1022.0F
MILWAUKEE LAKESH 2000   36      50/  5/  6   N/A
KENOSHA   LAKESH 2000   38      50/  7/  8   N/A
$$

TC  - TEMPERATURE IN CELSIUS
VSB - VISIBILITY IN STATUTE MILES
WCI - WIND CHILL INDEX
HX  - HEAT INDEX




USA.gov is the U.S. government's official web portal to all federal, state and local government web resources and services.